TimeCST,TemperatureF,Dew PointF,Humidity,Sea Level PressureIn,VisibilityMPH,Wind Direction,Wind SpeedMPH,Gust SpeedMPH,PrecipitationIn,Events,Conditions,WindDirDegrees,DateUTC
12:15 AM,17.2,13.3,84,30.14,10.0,SW,11.5,-,N/A,,Clear,220,2013-01-02 06:15:00
12:35 AM,15.8,12.2,86,30.14,10.0,SW,9.2,-,N/A,,Clear,230,2013-01-02 06:35:00
12:55 AM,14.9,11.5,86,30.14,10.0,WSW,8.1,-,N/A,,Clear,240,2013-01-02 06:55:00
1:15 AM,14.7,11.5,87,30.13,10.0,WSW,5.8,-,N/A,,Clear,240,2013-01-02 07:15:00
1:35 AM,15.3,12.0,87,30.13,10.0,West,4.6,-,N/A,,Clear,270,2013-01-02 07:35:00
1:55 AM,14.0,11.1,88,30.12,10.0,SW,6.9,-,N/A,,Clear,220,2013-01-02 07:55:00
2:15 AM,13.1,10.4,89,30.12,10.0,WSW,4.6,-,N/A,,Clear,240,2013-01-02 08:15:00
2:35 AM,12.7,10.0,89,30.11,10.0,West,4.6,-,N/A,,Clear,260,2013-01-02 08:35:00
2:55 AM,12.9,10.2,89,30.11,10.0,WSW,8.1,-,N/A,,Clear,250,2013-01-02 08:55:00
3:35 AM,12.7,10.0,89,30.10,10.0,WSW,6.9,-,N/A,,Clear,250,2013-01-02 09:35:00
3:55 AM,13.1,10.4,89,30.10,10.0,West,4.6,-,N/A,,Clear,270,2013-01-02 09:55:00
4:15 AM,12.2,9.0,87,30.08,10.0,SW,9.2,-,N/A,,Clear,230,2013-01-02 10:15:00
4:35 AM,11.8,8.6,87,30.08,10.0,WSW,5.8,-,N/A,,Clear,240,2013-01-02 10:35:00
4:55 AM,11.8,8.4,86,30.07,10.0,SW,6.9,-,N/A,,Clear,230,2013-01-02 10:55:00
5:15 AM,11.5,7.7,85,30.09,10.0,West,6.9,-,N/A,,Clear,270,2013-01-02 11:15:00
5:35 AM,11.3,7.7,85,30.08,10.0,West,6.9,-,N/A,,Clear,260,2013-01-02 11:35:00
5:55 AM,11.1,7.3,85,30.08,10.0,Calm,Calm,-,N/A,,Clear,0,2013-01-02 11:55:00
6:15 AM,9.7,6.4,87,30.07,10.0,Calm,Calm,-,N/A,,Clear,0,2013-01-02 12:15:00
6:35 AM,9.9,6.3,85,30.09,10.0,West,6.9,-,N/A,,Clear,260,2013-01-02 12:35:00
6:55 AM,10.4,6.1,83,30.09,10.0,WSW,5.8,-,N/A,,Clear,250,2013-01-02 12:55:00
7:15 AM,10.0,5.9,83,30.08,10.0,WSW,4.6,-,N/A,,Clear,250,2013-01-02 13:15:00
7:35 AM,9.5,5.5,84,30.09,10.0,West,5.8,-,N/A,,Clear,260,2013-01-02 13:35:00
7:55 AM,8.6,4.8,85,30.07,10.0,Calm,Calm,-,N/A,,Clear,0,2013-01-02 13:55:00
8:15 AM,7.9,4.1,85,30.08,10.0,Calm,Calm,-,N/A,,Clear,0,2013-01-02 14:15:00
8:35 AM,8.1,4.1,84,30.09,10.0,West,3.5,-,N/A,,Clear,270,2013-01-02 14:35:00
8:55 AM,9.5,5.0,82,30.10,10.0,West,3.5,-,N/A,,Scattered Clouds,270,2013-01-02 14:55:00
9:15 AM,12.6,7.5,80,30.10,10.0,West,3.5,-,N/A,,Mostly Cloudy,270,2013-01-02 15:15:00
9:35 AM,15.4,10.6,81,30.12,10.0,West,3.5,-,N/A,,Overcast,270,2013-01-02 15:35:00
9:55 AM,19.0,14.5,83,30.12,10.0,WNW,5.8,-,N/A,,Overcast,290,2013-01-02 15:55:00
10:15 AM,22.3,17.6,82,30.12,10.0,West,6.9,-,N/A,,Mostly Cloudy,280,2013-01-02 16:15:00
10:35 AM,24.8,20.1,82,30.13,10.0,West,5.8,-,N/A,,Overcast,280,2013-01-02 16:35:00
10:55 AM,27.3,22.8,83,30.13,10.0,WNW,6.9,-,N/A,,Overcast,290,2013-01-02 16:55:00
11:15 AM,28.6,24.4,84,30.13,7.0,WNW,5.8,-,N/A,Snow,Light Snow,290,2013-01-02 17:15:00
11:35 AM,29.8,25.9,85,30.13,10.0,WNW,4.6,-,N/A,,Overcast,290,2013-01-02 17:35:00
11:55 AM,32.0,27.5,83,30.12,10.0,NW,6.9,-,N/A,,Overcast,310,2013-01-02 17:55:00
12:15 PM,32.5,28.2,84,30.10,10.0,NW,6.9,-,N/A,,Mostly Cloudy,310,2013-01-02 18:15:00
12:35 PM,33.8,28.6,81,30.11,10.0,NW,10.4,-,N/A,,Scattered Clouds,310,2013-01-02 18:35:00
12:55 PM,34.2,28.6,80,30.10,10.0,WNW,10.4,-,N/A,,Scattered Clouds,290,2013-01-02 18:55:00
1:15 PM,35.1,28.6,77,30.10,10.0,NW,8.1,-,N/A,,Scattered Clouds,310,2013-01-02 19:15:00
1:35 PM,35.4,27.9,74,30.10,10.0,WNW,6.9,-,N/A,,Clear,300,2013-01-02 19:35:00
1:55 PM,36.0,28.2,73,30.10,10.0,NW,8.1,-,N/A,,Clear,310,2013-01-02 19:55:00
2:15 PM,35.2,28.4,76,30.10,10.0,WNW,6.9,-,N/A,,Scattered Clouds,300,2013-01-02 20:15:00
2:35 PM,35.6,28.8,76,30.10,10.0,WNW,6.9,-,N/A,,Scattered Clouds,290,2013-01-02 20:35:00
2:55 PM,36.0,29.1,76,30.10,10.0,WNW,5.8,-,N/A,,Mostly Cloudy,290,2013-01-02 20:55:00
3:15 PM,36.3,29.1,75,30.11,10.0,WNW,6.9,-,N/A,,Overcast,290,2013-01-02 21:15:00
3:35 PM,36.5,29.1,75,30.12,10.0,WNW,9.2,-,N/A,,Overcast,290,2013-01-02 21:35:00
3:55 PM,36.5,28.9,74,30.12,10.0,WNW,6.9,-,N/A,,Overcast,290,2013-01-02 21:55:00
4:15 PM,36.3,28.9,75,30.13,10.0,WNW,5.8,-,N/A,,Overcast,290,2013-01-02 22:15:00
4:35 PM,36.0,29.1,76,30.13,10.0,WNW,6.9,-,N/A,,Overcast,300,2013-01-02 22:35:00
4:55 PM,35.8,28.9,76,30.14,10.0,NW,8.1,-,N/A,,Overcast,310,2013-01-02 22:55:00
5:15 PM,35.2,29.1,78,30.15,10.0,WNW,9.2,-,N/A,,Overcast,300,2013-01-02 23:15:00
5:35 PM,34.9,27.9,76,30.16,10.0,NW,8.1,-,N/A,,Overcast,320,2013-01-02 23:35:00
5:55 PM,34.7,27.5,75,30.16,10.0,NNW,8.1,-,N/A,,Overcast,330,2013-01-02 23:55:00
6:15 PM,34.3,27.9,77,30.17,10.0,NNW,8.1,-,N/A,,Overcast,330,2013-01-03 00:15:00
6:35 PM,34.5,27.9,77,30.17,10.0,NNW,8.1,-,N/A,,Overcast,330,2013-01-03 00:35:00
6:55 PM,34.2,27.5,77,30.18,10.0,NNW,4.6,-,N/A,,Overcast,330,2013-01-03 00:55:00
7:15 PM,33.8,27.5,78,30.19,10.0,NW,4.6,-,N/A,,Overcast,310,2013-01-03 01:15:00
7:35 PM,33.3,27.1,78,30.19,10.0,WNW,3.5,-,N/A,,Overcast,300,2013-01-03 01:35:00
7:55 PM,32.9,27.0,79,30.19,10.0,WSW,4.6,-,N/A,,Overcast,240,2013-01-03 01:55:00
8:15 PM,32.0,27.1,82,30.20,10.0,Calm,Calm,-,N/A,,Overcast,0,2013-01-03 02:15:00
8:35 PM,32.0,27.1,82,30.20,10.0,Calm,Calm,-,N/A,,Overcast,0,2013-01-03 02:35:00
8:55 PM,32.0,27.3,83,30.21,10.0,Calm,Calm,-,N/A,,Overcast,0,2013-01-03 02:55:00
9:15 PM,32.0,27.1,82,30.21,10.0,WSW,3.5,-,N/A,,Overcast,250,2013-01-03 03:15:00
9:35 PM,32.0,27.0,82,30.22,10.0,West,3.5,-,N/A,,Overcast,260,2013-01-03 03:35:00
9:55 PM,32.0,27.0,82,30.23,10.0,West,3.5,-,N/A,,Overcast,260,2013-01-03 03:55:00
10:15 PM,32.0,26.8,81,30.23,10.0,WSW,3.5,-,N/A,,Overcast,250,2013-01-03 04:15:00
10:35 PM,32.0,26.6,80,30.24,10.0,WSW,6.9,-,N/A,,Overcast,250,2013-01-03 04:35:00
10:55 PM,30.9,25.7,81,30.24,10.0,West,4.6,-,N/A,,Mostly Cloudy,260,2013-01-03 04:55:00
11:15 PM,30.0,25.5,83,30.24,10.0,West,3.5,-,N/A,,Mostly Cloudy,270,2013-01-03 05:15:00
11:35 PM,30.0,25.3,83,30.25,10.0,Calm,Calm,-,N/A,,Overcast,0,2013-01-03 05:35:00
11:55 PM,29.3,24.8,83,30.25,10.0,WNW,3.5,-,N/A,,Overcast,300,2013-01-03 05:55:00